INSAT-3DS

Last updated on Fri Dec 19 2025 00:02:26 GMT+0000 (Coordinated Universal Time)

1 58990U 24033A 25352.57024804 -.00000131 00000+0 00000+0 0 9994 2 58990 0.0507 110.2933 0001098 160.6124 103.9142 1.00272406 45250
UTC large
Height (km)
Speed (km/s)
/
Latitude / Longitude
Inclination (degrees)
Orbital Period (minutes)
Azimuth
Elevation
Range (km)
Doppler Factor

Next 0 passes for location: London (51.5072 / 0.1276)

Sorry there are no passes over London.